PDT,Max TemperatureF,Mean TemperatureF,Min TemperatureF,Max Dew PointF,MeanDew PointF,Min DewpointF,Max Humidity, Mean Humidity, Min Humidity, Max Sea Level PressureIn, Mean Sea Level PressureIn, Min Sea Level PressureIn, Max VisibilityMiles, Mean VisibilityMiles, Min VisibilityMiles, Max Wind SpeedMPH, Mean Wind SpeedMPH, Max Gust SpeedMPH,PrecipitationIn, CloudCover, Events, WindDirDegrees
2013-3-1,71,55,39,54,47,39,100,85,42,30.43,30.35,30.25,10,8,0,10,4,,0.00,0,Fog,137
2013-3-2,68,56,44,60,52,44,100,87,58,30.26,30.16,30.07,10,9,1,15,4,,0.00,1,Rain,93
2013-3-3,69,58,47,55,52,48,99,88,52,30.08,30.06,30.02,10,10,9,21,13,,0.00,5,,245
2013-3-4,60,53,44,54,49,43,100,92,74,30.13,30.07,30.02,10,10,8,20,16,25,0.00,2,,243
2013-3-5,57,49,41,50,46,41,100,86,64,30.04,29.94,29.83,10,10,10,23,14,29,0.03,4,Rain,228
2013-3-6,57,48,39,50,46,39,100,87,52,30.07,29.95,29.83,10,10,7,21,15,29,0.04,4,Rain,218
2013-3-7,57,45,33,46,40,33,99,78,54,30.01,29.94,29.87,10,8,2,13,6,22,0.00,2,,26
2013-3-8,64,49,34,46,41,34,99,78,40,30.02,29.89,29.83,10,10,10,25,9,29,0.00,1,,244
2013-3-9,69,53,37,46,38,28,100,69,22,30.29,30.23,30.06,10,10,10,21,8,30,0.00,0,,299
2013-3-10,67,50,32,49,42,31,99,76,38,30.38,30.30,30.25,10,10,10,10,6,,0.00,0,,168
2013-3-11,70,52,34,50,44,34,100,76,41,30.27,30.20,30.10,10,10,10,10,5,,0.00,0,,293
2013-3-12,74,56,39,56,50,39,100,75,42,30.18,30.11,30.05,10,10,9,10,5,,0.00,0,,189
2013-3-13,76,60,42,61,53,42,100,76,44,30.17,30.11,30.06,10,10,10,12,4,,0.00,0,Rain,96
2013-3-14,74,58,43,60,52,44,100,84,59,30.16,30.11,30.08,10,8,0,14,4,,0.00,1,Fog,243
2013-3-15,74,60,47,55,52,48,100,80,47,30.12,30.07,30.01,10,10,10,16,8,,0.00,1,,237
2013-3-16,73,60,47,56,50,46,100,76,43,30.09,30.04,29.98,10,10,8,20,10,,0.00,0,,237
2013-3-17,70,54,40,49,43,36,99,70,29,30.15,30.09,30.03,10,10,10,13,7,,0.00,0,,225
2013-3-18,69,54,41,49,46,42,100,68,40,30.12,30.06,30.02,10,10,10,20,8,,0.00,1,Rain,240
2013-3-19,67,56,46,54,49,46,100,80,48,30.14,30.10,30.05,10,10,7,18,9,,0.03,5,Rain,237
2013-3-20,62,55,48,59,54,48,100,99,81,30.13,30.09,30.06,10,8,2,21,6,22,0.09,7,Rain,244
2013-3-21,67,53,39,52,40,28,100,68,23,30.13,30.07,30.00,10,10,10,15,9,,0.00,0,,267
2013-3-22,66,54,43,44,23,18,96,31,17,30.12,30.07,30.04,10,10,10,23,10,29,0.00,0,,351
2013-3-23,70,54,49,44,43,42,81,72,60,30.07,30.06,30.05,10,10,10,12,10,,0.00,0,,235
2013-3-24,73,54,35,50,43,35,99,65,28,30.10,30.02,29.95,10,10,10,17,7,,0.00,0,Rain,243
2013-3-25,63,54,46,50,47,44,99,82,53,30.01,29.96,29.92,10,10,10,23,16,26,0.00,3,,241
2013-3-26,69,57,45,50,47,44,99,75,46,30.00,29.96,29.92,10,10,10,18,14,,0.00,2,,240
2013-3-27,66,56,48,55,52,45,100,85,62,30.00,29.96,29.94,10,10,10,22,14,30,0.00,2,,248
2013-3-28,70,60,50,58,54,50,100,83,53,30.10,30.05,30.00,10,10,5,13,6,,0.10,5,Rain,246
2013-3-29,76,60,44,57,52,44,100,63,41,30.11,30.04,29.99,10,10,10,18,5,,0.00,1,Rain,43
2013-3-30,69,61,55,57,56,51,100,89,57,30.05,30.00,29.96,10,10,6,20,13,,0.03,6,Rain-Thunderstorm,250
2013-3-31,69,60,53,61,56,50,100,94,54,30.10,30.04,29.99,10,9,1,25,8,31,0.48,7,Rain-Thunderstorm,229